sat.trackr.live / text

‹ back to catalog

STARLINK-35261

NORAD 65595 · 2025-207D

PAYLOAD ACTIVE UNKNOWN

§ Identity

Operator
Country
US
Launch date
2025-09-13
Launch site
AFWTR
Launch vehicle
Mass (kg)
RCS (m²)

Purposes: comms

External: N2YO · Heavens-Above · Gunter

§ Orbital elements

Epoch: 2026-09-20T22:00:03.000096Z

Period
93.91 min
Inclination
97.2860°
Eccentricity
0.0001477
Mean motion
15.33422597 rev/d
Perigee alt
464.6 km
Apogee alt
466.6 km
Semi-major
6,843.7 km
B*
-1.3286e-4
RAAN
326.4499°
Arg perigee
95.5138°
Mean anomaly
230.0451°
Rev number
574

§ Raw data

STARLINK-352611 65595U 25207D   26263.91670139 -.00004359  00000+0 -13286-3 0  99962 65595  97.2860 326.4499 0001477  95.5138 230.0451 15.33422597  5743

JSON: /api/v1/satellites/65595 · /tle

For live sub-satellite position, see the globe view (requires WebGL).

§ Visibility from observer

Set your observer location to see the next 7 days of passes ≥ 10°. The values pass through the URL so the page stays shareable.

No JS? Fill the form by hand. The geolocation button needs JavaScript.